W1MDM-13 Weather Reports


Display with metric or nautical units.
time (UTC)temp
F
wind
direction
speed
MPH
gust
MPH
rain 1hr
in
rain 24hr
in
rain mn
in
humidity
%
barometer
mb
20220704033504 83 152 3.0 9.0 0.00 0.00 0.00 70 1016.9
20220704033003 84 154 4.0 9.0 0.00 0.00 0.00 68 1016.7
20220704032504 84 153 4.0 9.0 0.00 0.00 0.00 67 1016.7
20220704032003 84 156 3.0 8.0 0.00 0.00 0.00 65 1016.6
20220704031503 84 158 3.0 8.0 0.00 0.00 0.00 64 1016.5
20220704031003 85 153 3.0 7.0 0.00 0.00 0.00 63 1016.4
20220704030503 85 146 3.0 7.0 0.00 0.00 0.00 63 1016.4
20220704030003 85 149 3.0 8.0 0.00 0.00 0.00 63 1016.3
20220704025504 85 149 4.0 10.0 0.00 0.00 0.00 62 1016.3
20220704025004 85 149 5.0 12.0 0.00 0.00 0.00 62 1016.2
20220704024504 86 150 4.0 12.0 0.00 0.00 0.00 61 1016.0
20220704024004 86 149 5.0 12.0 0.00 0.00 0.00 61 1016.1
20220704023503 86 156 6.0 12.0 0.00 0.00 0.00 61 1016.0
20220704023003 86 163 5.0 11.0 0.00 0.00 0.00 61 1016.0
20220704022504 86 160 5.0 11.0 0.00 0.00 0.00 60 1016.0
20220704022003 87 150 5.0 10.0 0.00 0.00 0.00 60 1016.0
20220704021503 87 151 4.0 12.0 0.00 0.00 0.00 60 1015.9
20220704021003 87 154 5.0 15.0 0.00 0.00 0.00 60 1015.9
20220704020503 87 147 6.0 15.0 0.00 0.00 0.00 59 1015.7
20220704020004 87 143 5.0 15.0 0.00 0.00 0.00 59 1015.7
20220704015504 88 144 5.0 15.0 0.00 0.00 0.00 59 1015.6
20220704015003 88 143 6.0 15.0 0.00 0.00 0.00 58 1015.5
20220704014504 88 141 6.0 15.0 0.00 0.00 0.00 58 1015.5
20220704014003 89 142 6.0 14.0 0.00 0.00 0.00 57 1015.5
20220704013503 89 140 6.0 12.0 0.00 0.00 0.00 57 1015.5
20220704013003 90 139 5.0 12.0 0.00 0.00 0.00 56 1015.4
20220704012503 90 146 4.0 10.0 0.00 0.00 0.00 55 1015.3
20220704012003 90 153 3.0 11.0 0.00 0.00 0.00 54 1015.3
20220704011504 91 148 4.0 11.0 0.00 0.00 0.00 53 1015.2
20220704011004 91 143 5.0 11.0 0.00 0.00 0.00 52 1015.0
20220704010504 91 145 5.0 13.0 0.00 0.00 0.00 51 1014.9
20220704010003 92 147 5.0 13.0 0.00 0.00 0.00 50 1014.9
20220704005503 92 149 6.0 13.0 0.00 0.00 0.00 50 1014.8
20220704005003 92 149 6.0 14.0 0.00 0.00 0.00 50 1014.9
20220704004503 93 148 5.0 14.0 0.00 0.00 0.00 50 1014.7
20220704004003 93 150 5.0 11.0 0.00 0.00 0.00 48 1014.6
20220704003503 94 145 5.0 11.0 0.00 0.00 0.00 48 1014.6
20220704003004 94 137 6.0 12.0 0.00 0.00 0.00 48 1014.6
20220704002504 94 139 6.0 15.0 0.00 0.00 0.00 47 1014.4
20220704002003 94 145 5.0 15.0 0.00 0.00 0.00 47 1014.4
20220704001504 94 146 6.0 16.0 0.00 0.00 0.00 47 1014.3
20220704001003 94 133 5.0 16.0 0.00 0.00 0.00 46 1014.3
20220704000503 95 132 4.0 11.0 0.00 0.00 0.00 47 1014.3
20220704000003 95 146 4.0 11.0 0.00 0.00 0.00 47 1014.3
20220703235503 95 146 4.0 11.0 0.00 0.00 0.00 46 1014.3
20220703235003 95 147 4.0 12.0 0.00 0.00 0.00 46 1014.3
20220703234503 95 134 4.0 12.0 0.00 0.00 0.00 45 1014.2
20220703234004 96 133 4.0 11.0 0.00 0.00 0.00 45 1014.3
20220703233504 96 146 5.0 11.0 0.00 0.00 0.00 45 1014.3
20220703233003 96 153 5.0 14.0 0.00 0.00 0.00 45 1014.3
20220703232503 96 150 4.0 14.0 0.00 0.00 0.00 44 1014.2
20220703232004 96 142 4.0 10.0 0.00 0.00 0.00 43 1014.2
20220703231503 97 145 4.0 11.0 0.00 0.00 0.00 42 1014.2
20220703231003 97 148 4.0 11.0 0.00 0.00 0.00 42 1014.3
20220703230503 97 151 4.0 9.0 0.00 0.00 0.00 42 1014.3
20220703230003 97 149 5.0 12.0 0.00 0.00 0.00 42 1014.4
20220703225504 97 146 5.0 12.0 0.00 0.00 0.00 41 1014.4
20220703225004 98 143 4.0 10.0 0.00 0.00 0.00 42 1014.4
20220703224503 98 151 4.0 10.0 0.00 0.00 0.00 42 1014.5
20220703224004 98 152 3.0 9.0 0.00 0.00 0.00 41 1014.5
20220703223504 98 136 3.0 9.0 0.00 0.00 0.00 42 1014.6
20220703223003 98 164 4.0 9.0 0.00 0.00 0.00 42 1014.7
20220703222503 98 187 3.0 9.0 0.00 0.00 0.00 44 1014.6
20220703222003 97 161 4.0 10.0 0.00 0.00 0.00 43 1014.6
20220703221503 97 179 3.0 10.0 0.00 0.00 0.00 43 1014.7
20220703221003 97 192 3.0 9.0 0.00 0.00 0.00 43 1014.7
20220703220504 97 173 4.0 9.0 0.00 0.00 0.00 43 1014.8
20220703220004 97 155 4.0 9.0 0.00 0.00 0.00 45 1014.9
20220703215504 96 154 4.0 11.0 0.00 0.00 0.00 45 1014.8
20220703215004 97 170 3.0 11.0 0.00 0.00 0.00 44 1014.9
20220703214503 97 177 3.0 11.0 0.00 0.00 0.00 44 1015.0
20220703214003 97 154 4.0 11.0 0.00 0.00 0.00 42 1015.0
20220703213503 97 141 4.0 11.0 0.00 0.00 0.00 44 1015.1
20220703213003 96 140 4.0 11.0 0.00 0.00 0.00 45 1015.2
20220703212503 96 140 3.0 9.0 0.00 0.00 0.00 44 1015.2
20220703212004 96 160 4.0 10.0 0.00 0.00 0.00 44 1015.3
20220703211504 96 174 4.0 13.0 0.00 0.00 0.00 43 1015.4
20220703211004 96 194 4.0 13.0 0.00 0.00 0.00 43 1015.5
20220703210504 96 172 4.0 14.0 0.00 0.00 0.00 45 1015.4
20220703210004 96 154 3.0 14.0 0.00 0.00 0.00 46 1015.6
20220703205503 97 212 3.0 12.0 0.00 0.00 0.00 45 1015.7
20220703205003 97 231 3.0 12.0 0.00 0.00 0.00 46 1015.7
20220703204503 97 185 4.0 14.0 0.00 0.00 0.00 46 1015.7
20220703204003 97 182 4.0 14.0 0.00 0.00 0.00 45 1015.8
20220703203503 98 213 3.0 10.0 0.00 0.00 0.00 46 1015.9
20220703203004 97 178 3.0 10.0 0.00 0.00 0.00 46 1016.1
20220703202504 96 156 3.0 11.0 0.00 0.00 0.00 46 1016.3
20220703202003 96 168 3.0 11.0 0.00 0.00 0.00 47 1016.3
20220703201504 96 169 4.0 10.0 0.00 0.00 0.00 46 1016.3
20220703201004 96 152 5.0 11.0 0.00 0.00 0.00 46 1016.4
20220703200503 96 168 4.0 11.0 0.00 0.00 0.00 47 1016.4
20220703200004 96 195 3.0 9.0 0.00 0.00 0.00 47 1016.6
20220703195503 96 186 3.0 8.0 0.00 0.00 0.00 47 1016.7
20220703195003 96 190 3.0 8.0 0.00 0.00 0.00 46 1016.6
20220703194504 95 181 3.0 8.0 0.00 0.00 0.00 50 1016.7
20220703194004 95 177 3.0 9.0 0.00 0.00 0.00 49 1016.8
20220703193504 95 179 4.0 9.0 0.00 0.00 0.00 48 1016.8
20220703193004 95 174 4.0 14.0 0.00 0.00 0.00 51 1016.9
20220703192503 95 172 4.0 14.0 0.00 0.00 0.00 51 1016.9
20220703192003 95 194 3.0 11.0 0.00 0.00 0.00 51 1017.0
20220703191503 94 189 3.0 11.0 0.00 0.00 0.00 51 1017.0
20220703191003 94 144 3.0 8.0 0.00 0.00 0.00 53 1017.0
20220703190503 93 138 4.0 10.0 0.00 0.00 0.00 55 1017.0
20220703190003 93 152 4.0 14.0 0.00 0.00 0.00 53 1017.2
20220703185504 93 200 4.0 14.0 0.00 0.00 0.00 52 1017.2
20220703185004 93 243 3.0 8.0 0.00 0.00 0.00 54 1017.2
20220703184504 92 224 3.0 10.0 0.00 0.00 0.00 57 1017.2
20220703184003 92 181 3.0 10.0 0.00 0.00 0.00 57 1017.2
20220703183503 91 166 3.0 9.0 0.00 0.00 0.00 60 1017.2
20220703183003 91 178 3.0 8.0 0.00 0.00 0.00 58 1017.2
20220703182503 91 185 3.0 7.0 0.00 0.00 0.00 58 1017.4
20220703182003 91 190 3.0 8.0 0.00 0.00 0.00 58 1017.4
20220703181503 91 197 3.0 8.0 0.00 0.00 0.00 57 1017.4
20220703181004 91 169 4.0 11.0 0.00 0.00 0.00 59 1017.4
20220703180504 91 156 5.0 11.0 0.00 0.00 0.00 57 1017.5
20220703180004 91 178 5.0 15.0 0.00 0.00 0.00 57 1017.5
20220703175504 91 188 4.0 15.0 0.00 0.00 0.00 60 1017.5
20220703175003 90 146 4.0 9.0 0.00 0.00 0.00 60 1017.6
20220703174503 90 165 4.0 10.0 0.00 0.00 0.00 59 1017.7
20220703174003 90 175 3.0 10.0 0.00 0.00 0.00 60 1017.7
20220703173503 90 154 3.0 10.0 0.00 0.00 0.00 59 1017.7
20220703173003 90 152 3.0 10.0 0.00 0.00 0.00 60 1017.6
20220703172503 91 166 3.0 8.0 0.00 0.00 0.00 60 1017.8
20220703172004 91 211 3.0 9.0 0.00 0.00 0.00 60 1017.8
20220703171504 90 232 4.0 10.0 0.00 0.00 0.00 61 1017.8
20220703171003 89 212 4.0 10.0 0.00 0.00 0.00 62 1017.8
20220703170503 89 191 4.0 11.0 0.00 0.00 0.00 63 1017.9
20220703170003 88 190 3.0 11.0 0.00 0.00 0.00 62 1018.0
20220703165503 89 203 4.0 10.0 0.00 0.00 0.00 63 1018.1
20220703165003 89 209 3.0 10.0 0.00 0.00 0.00 61 1018.0
20220703164503 88 194 3.0 12.0 0.00 0.00 0.00 62 1017.9
20220703164004 88 207 3.0 12.0 0.00 0.00 0.00 62 1018.1
20220703163504 88 213 3.0 9.0 0.00 0.00 0.00 65 1018.1
20220703163004 88 197 3.0 11.0 0.00 0.00 0.00 64 1018.1
20220703162504 88 205 4.0 11.0 0.00 0.00 0.00 64 1018.2
20220703162004 88 204 4.0 11.0 0.00 0.00 0.00 66 1018.1
20220703161503 87 197 4.0 11.0 0.00 0.00 0.00 65 1018.2
20220703161003 88 203 4.0 11.0 0.00 0.00 0.00 65 1018.2
20220703160503 88 209 4.0 10.0 0.00 0.00 0.00 65 1018.2
20220703160003 88 191 4.0 11.0 0.00 0.00 0.00 65 1018.2
20220703155503 88 174 4.0 11.0 0.00 0.00 0.00 65 1018.2
20220703155004 88 189 4.0 11.0 0.00 0.00 0.00 66 1018.1
20220703154503 86 195 4.0 11.0 0.00 0.00 0.00 68 1018.2
20220703154003 85 198 3.0 11.0 0.00 0.00 0.00 70 1018.1
20220703153503 85 226 3.0 8.0 0.00 0.00 0.00 71 1018.1
20220703153004 84 207 4.0 10.0 0.00 0.00 0.00 70 1018.1
20220703152503 84 195 4.0 10.0 0.00 0.00 0.00 70 1018.1
20220703152003 85 199 3.0 12.0 0.00 0.00 0.00 70 1017.9
20220703151503 85 187 4.0 12.0 0.00 0.00 0.00 71 1017.9
20220703151004 85 184 3.0 10.0 0.00 0.00 0.00 74 1017.9
20220703150504 84 180 3.0 10.0 0.00 0.00 0.00 74 1017.9
20220703150004 84 175 3.0 10.0 0.00 0.00 0.00 76 1017.9
20220703145504 84 177 4.0 10.0 0.00 0.00 0.00 76 1017.8
20220703145003 83 168 4.0 10.0 0.00 0.00 0.00 77 1017.8
20220703144504 83 171 4.0 10.0 0.00 0.00 0.00 76 1017.9
20220703144003 83 173 3.0 9.0 0.00 0.00 0.00 76 1017.8
20220703143503 82 175 3.0 8.0 0.00 0.00 0.00 79 1017.8
20220703143003 82 184 3.0 8.0 0.00 0.00 0.00 78 1017.8
20220703142503 82 185 3.0 8.0 0.00 0.00 0.00 78 1017.8
20220703142004 82 178 2.0 7.0 0.00 0.00 0.00 79 1017.7
20220703141504 82 166 3.0 7.0 0.00 0.00 0.00 80 1017.8
20220703141004 82 164 3.0 8.0 0.00 0.00 0.00 80 1017.7
20220703140504 82 165 4.0 9.0 0.00 0.00 0.00 79 1017.7
20220703140003 83 153 3.0 9.0 0.00 0.00 0.00 79 1017.5
20220703135503 83 163 2.0 8.0 0.00 0.00 0.00 80 1017.5
20220703135003 83 173 2.0 8.0 0.00 0.00 0.00 82 1017.4
20220703134503 82 160 3.0 8.0 0.00 0.00 0.00 81 1017.4
20220703134003 82 164 3.0 7.0 0.00 0.00 0.00 82 1017.2
20220703133504 81 166 3.0 8.0 0.00 0.00 0.00 84 1017.2
20220703133004 80 161 3.0 8.0 0.00 0.00 0.00 84 1017.1
20220703132504 80 149 3.0 10.0 0.00 0.00 0.00 85 1017.1
20220703132004 80 167 3.0 10.0 0.00 0.00 0.00 85 1017.2
20220703131503 80 195 2.0 6.0 0.00 0.00 0.00 87 1017.1
20220703131003 79 169 2.0 6.0 0.00 0.00 0.00 87 1017.1
20220703130503 79 151 3.0 6.0 0.00 0.00 0.00 88 1017.1
20220703130003 79 154 2.0 6.0 0.00 0.00 0.00 88 1017.0
20220703125503 78 160 2.0 6.0 0.00 0.00 0.00 88 1017.0
20220703125003 78 175 2.0 6.0 0.00 0.00 0.00 88 1017.0
20220703124504 78 208 2.0 4.0 0.00 0.00 0.00 88 1016.9
20220703124004 78 220 1.0 4.0 0.00 0.00 0.00 88 1016.9
20220703123503 78 212 1.0 3.0 0.00 0.00 0.00 88 1016.9
20220703123003 78 217 1.0 3.0 0.00 0.00 0.00 88 1016.9
20220703122504 78 201 2.0 5.0 0.00 0.00 0.00 88 1016.9
20220703122003 78 195 2.0 7.0 0.00 0.00 0.00 88 1016.8
20220703121503 78 195 3.0 7.0 0.00 0.00 0.00 88 1016.8
20220703121003 78 190 3.0 7.0 0.00 0.00 0.00 88 1016.9
20220703120503 78 192 3.0 6.0 0.00 0.00 0.00 88 1016.9
20220703120004 78 199 3.0 7.0 0.00 0.00 0.00 88 1016.9
20220703115504 78 201 3.0 8.0 0.00 0.00 0.00 88 1016.9
20220703115004 78 210 2.0 8.0 0.00 0.00 0.00 88 1017.0
20220703114504 78 204 3.0 8.0 0.00 0.00 0.00 88 1016.8
20220703114003 78 196 3.0 9.0 0.00 0.00 0.00 88 1016.8
20220703113503 78 201 3.0 9.0 0.00 0.00 0.00 88 1016.8
20220703113003 78 214 2.0 7.0 0.00 0.00 0.00 88 1016.8
20220703112503 78 192 3.0 6.0 0.00 0.00 0.00 88 1016.7
20220703112003 78 179 2.0 7.0 0.00 0.00 0.00 88 1016.7
20220703111503 78 188 2.0 7.0 0.00 0.00 0.00 88 1016.6
20220703111004 78 175 1.0 5.0 0.00 0.00 0.00 88 1016.5
20220703110503 78 171 2.0 5.0 0.00 0.00 0.00 88 1016.5
20220703105503 78 174 2.0 5.0 0.00 0.00 0.00 88 1016.3
20220703105003 78 177 2.0 6.0 0.00 0.00 0.00 88 1016.3
20220703104503 78 180 2.0 6.0 0.00 0.00 0.00 88 1016.3
20220703104003 78 175 2.0 5.0 0.00 0.00 0.00 88 1016.3
20220703103503 78 168 2.0 5.0 0.00 0.00 0.00 88 1016.2
20220703103003 78 169 1.0 4.0 0.00 0.00 0.00 88 1016.2
20220703102504 78 168 1.0 5.0 0.00 0.00 0.00 88 1016.1
20220703102004 78 168 1.0 5.0 0.00 0.00 0.00 88 1016.2
20220703101504 77 168 1.0 5.0 0.00 0.00 0.00 88 1016.2
20220703101003 77 169 1.0 5.0 0.00 0.00 0.00 88 1016.1
20220703100504 77 169 1.0 4.0 0.00 0.00 0.00 88 1016.1
20220703100003 77 169 1.0 4.0 0.00 0.00 0.00 88 1016.1
20220703095503 78 167 2.0 6.0 0.00 0.00 0.00 88 1016.0
20220703095003 78 166 2.0 6.0 0.00 0.00 0.00 88 1016.0
20220703094503 78 169 2.0 5.0 0.00 0.00 0.00 88 1016.1
20220703094003 78 174 2.0 4.0 0.00 0.00 0.00 88 1016.1
20220703093504 78 173 2.0 5.0 0.00 0.00 0.00 88 1016.0
20220703093004 78 154 2.0 6.0 0.00 0.00 0.00 88 1016.0
20220703092503 78 159 3.0 6.0 0.00 0.00 0.00 88 1016.0
20220703092004 78 173 3.0 10.0 0.00 0.00 0.00 88 1016.2
20220703091503 78 173 3.0 10.0 0.00 0.00 0.00 87 1016.2
20220703091003 78 167 3.0 9.0 0.00 0.00 0.00 87 1016.3
20220703090503 78 162 3.0 9.0 0.00 0.00 0.00 87 1016.5
20220703090003 78 166 3.0 9.0 0.00 0.00 0.00 87 1016.4
20220703085503 78 168 3.0 9.0 0.00 0.00 0.00 87 1016.5
20220703085004 78 168 3.0 8.0 0.00 0.00 0.00 86 1016.4
20220703084504 79 173 3.0 8.0 0.00 0.00 0.00 86 1016.5
20220703084004 79 183 3.0 9.0 0.00 0.00 0.00 86 1016.6
20220703083503 79 185 4.0 10.0 0.00 0.00 0.00 85 1016.6
20220703083003 79 191 4.0 10.0 0.00 0.00 0.00 85 1016.7
20220703082503 79 208 3.0 9.0 0.00 0.00 0.00 85 1016.6
20220703082003 79 213 4.0 11.0 0.00 0.00 0.00 84 1016.5
20220703081503 79 193 4.0 11.0 0.00 0.00 0.00 84 1016.5
20220703081003 79 179 4.0 10.0 0.00 0.00 0.00 84 1016.4
20220703080504 79 186 4.0 11.0 0.00 0.00 0.00 84 1016.4
20220703080004 79 196 3.0 11.0 0.00 0.00 0.00 84 1016.5
20220703075503 79 191 2.0 7.0 0.00 0.00 0.00 85 1016.4
20220703075003 79 182 3.0 7.0 0.00 0.00 0.00 84 1016.4
20220703074504 79 191 3.0 6.0 0.00 0.00 0.00 84 1016.4
20220703074003 79 187 3.0 10.0 0.00 0.00 0.00 85 1016.4
20220703073503 79 171 4.0 10.0 0.00 0.00 0.00 84 1016.3
20220703073003 79 168 4.0 11.0 0.00 0.00 0.00 84 1016.2
20220703072504 79 171 4.0 11.0 0.00 0.00 0.00 84 1016.1
20220703072004 79 172 5.0 11.0 0.00 0.00 0.00 85 1016.2
20220703071504 79 168 4.0 11.0 0.00 0.00 0.00 84 1016.0
20220703071004 79 170 4.0 15.0 0.00 0.00 0.00 85 1015.9
20220703070504 79 174 4.0 15.0 0.00 0.00 0.00 85 1016.0
20220703070003 80 164 4.0 10.0 0.00 0.00 0.00 85 1015.9
20220703065503 79 161 4.0 10.0 0.00 0.00 0.00 85 1015.9
20220703065003 80 161 3.0 9.0 0.00 0.00 0.00 85 1015.9
20220703064503 80 157 3.0 9.0 0.00 0.00 0.00 86 1015.9
20220703064003 80 151 4.0 9.0 0.00 0.00 0.00 85 1016.0
20220703063504 80 156 4.0 9.0 0.00 0.00 0.00 86 1015.9
20220703063004 80 166 4.0 10.0 0.00 0.00 0.00 85 1015.9
20220703062503 80 161 3.0 10.0 0.00 0.00 0.00 86 1015.9
20220703062003 80 161 3.0 9.0 0.00 0.00 0.00 86 1015.7
20220703061503 80 158 4.0 9.0 0.00 0.00 0.00 85 1015.7
20220703061003 80 157 3.0 9.0 0.00 0.00 0.00 85 1015.6
20220703060503 80 159 4.0 10.0 0.00 0.00 0.00 85 1015.6
20220703060003 80 151 5.0 13.0 0.00 0.00 0.00 85 1015.5
20220703055504 80 152 6.0 14.0 0.00 0.00 0.00 84 1015.5
20220703055004 80 153 5.0 14.0 0.00 0.00 0.00 84 1015.3
20220703054503 80 150 5.0 13.0 0.00 0.00 0.00 84 1015.4
20220703054004 80 152 4.0 12.0 0.00 0.00 0.00 84 1015.4
20220703053503 80 157 4.0 10.0 0.00 0.00 0.00 83 1015.5
20220703053004 80 152 4.0 10.0 0.00 0.00 0.00 83 1015.4
20220703052503 80 137 4.0 11.0 0.00 0.00 0.00 83 1015.2
20220703052003 81 141 4.0 11.0 0.00 0.00 0.00 83 1015.3
20220703051503 81 149 3.0 9.0 0.00 0.00 0.00 83 1015.2
20220703051004 81 147 3.0 9.0 0.00 0.00 0.00 83 1015.2
20220703050504 81 148 4.0 8.0 0.00 0.00 0.00 82 1015.3
20220703050004 81 149 3.0 8.0 0.00 0.00 0.00 82 1015.3
20220703045504 81 159 3.0 8.0 0.00 0.00 0.00 81 1015.2
20220703045004 82 167 3.0 8.0 0.00 0.00 0.00 81 1015.2
20220703044503 82 160 5.0 16.0 0.00 0.00 0.00 80 1015.0
20220703044003 82 153 6.0 16.0 0.00 0.00 0.00 80 1015.0
20220703043503 82 146 4.0 15.0 0.00 0.00 0.00 80 1015.0
20220703043003 82 150 3.0 10.0 0.00 0.00 0.00 79 1014.9
20220703042504 82 162 4.0 10.0 0.00 0.00 0.00 79 1014.8
20220703042004 83 163 4.0 13.0 0.00 0.00 0.00 79 1014.8
20220703041504 83 153 4.0 13.0 0.00 0.00 0.00 78 1014.8
20220703041004 83 149 5.0 12.0 0.00 0.00 0.00 78 1014.8
20220703040503 83 154 5.0 12.0 0.00 0.00 0.00 77 1014.6
20220703040003 83 160 5.0 11.0 0.00 0.00 0.00 77 1014.6
20220703035503 84 164 5.0 13.0 0.00 0.00 0.00 76 1014.6
20220703035003 84 164 5.0 13.0 0.00 0.00 0.00 76 1014.7
20220703034503 84 165 5.0 11.0 0.00 0.00 0.00 75 1014.6
20220703034003 84 168 5.0 11.0 0.00 0.00 0.00 75 1014.6